Weather History for KLBF - December, 2012

Change the Weather History Date:

Monday, December 24, 2012

  Actual Average Record
Temperature  
Mean Temperature 13 °F 24 °F  
Max Temperature 20 °F 38 °F 62 °F (1922)
Min Temperature 5 °F 11 °F -27 °F (1879)
Degree Days  
Heating Degree Days 52 41  
Month to date heating degree days 859 945  
Since 1 July heating degree days 2346 2496  
Cooling Degree Days 0 0  
Month to date cooling degree days 0 0  
Year to date cooling degree days 1245 768  
Moisture  
Dew Point 7 °F    
Average Humidity 75    
Maximum Humidity 88    
Minimum Humidity 62    
Precipitation  
Precipitation 0.00 in 0.01 in 0.37 in (1973)
Month to date precipitation 0.26 0.32  
Year to date precipitation 9.93 20.14  
Snow  
Snow 0.00 in 0.10 in 5.80 in (1973)
Month to date snowfall 2.9 3.5  
Since 1 July snowfall 5.6 9.7  
Snow Depth 1.00 in    
Sea Level Pressure  
Sea Level Pressure 30.16 in    
Wind  
Wind Speed 8 mph (NE)    
Max Wind Speed 16 mph    
Max Gust Speed 18 mph    
Visibility 10 miles    
Events      
T = Trace of Precipitation, MM = Missing Value Source: NWS Daily Summary

Daily Weather History Graph

Daily Weather History Graph

Search for Another Location

Airport or City:

Trip Planner

Search our weather history database for the weather conditions in past years. The results will help you decide how hot, cold, wet, or windy it might be!

Date:

Astronomy

Dec. 24, 2012 Rise Set
Actual Time 8:06 AM CST 5:19 PM CST
Civil Twilight 7:34 AM CST 5:50 PM CST
Nautical Twilight 7:00 AM CST 6:25 PM CST
Astronomical Twilight 6:26 AM CST 6:58 PM CST
Moon 2:48 PM CST (12/24) 4:45 AM CST (12/24)
Length of Visible Light 10h 15m
Length of Day
9h 13m
Waxing Gibbous, 88% of the Moon is Illuminated
Dec 24
Waxing Gibbous
Dec 28
Full
Jan 4
Last Quarter
Jan 11
New
Jan 18
First Quarter

Hourly Weather History & Observations

Time (CST) Temp. Windchill Dew Point Humidity Pressure Visibility Wind Dir Wind Speed Gust Speed Precip Events Conditions
12:53 AM 8.1 °F -5.3 °F 3.0 °F 80% 30.09 in 9.0 mi NE 9.2 mph - N/A   Clear
1:53 AM 8.1 °F - 5.0 °F 87% 30.09 in 9.0 mi Calm Calm - N/A   Clear
2:53 AM 6.1 °F -2.8 °F 3.0 °F 87% 30.12 in 8.0 mi NW 4.6 mph - N/A   Clear
3:53 AM 10.0 °F -0.9 °F 6.1 °F 84% 30.12 in 9.0 mi NW 6.9 mph - N/A   Clear
4:53 AM 10.9 °F 2.9 °F 7.0 °F 84% 30.12 in 10.0 mi NW 4.6 mph - N/A   Clear
5:53 AM 12.0 °F - 9.0 °F 88% 30.12 in 9.0 mi Calm Calm - N/A   Mostly Cloudy
6:53 AM 8.1 °F 1.4 °F 3.9 °F 83% 30.12 in 9.0 mi ESE 3.5 mph - N/A   Clear
7:53 AM 10.9 °F 2.9 °F 7.0 °F 84% 30.12 in 10.0 mi East 4.6 mph - N/A   Mostly Cloudy
8:53 AM 14.0 °F 6.5 °F 9.0 °F 80% 30.13 in 9.0 mi East 4.6 mph - N/A   Clear
9:53 AM 15.1 °F 6.4 °F 10.0 °F 80% 30.16 in 9.0 mi East 5.8 mph - N/A   Clear
10:53 AM 17.1 °F 7.6 °F 10.0 °F 74% 30.18 in 10.0 mi NE 6.9 mph - N/A   Clear
11:53 AM 17.1 °F 5.0 °F 9.0 °F 71% 30.18 in 10.0 mi ENE 10.4 mph - N/A   Overcast
12:53 PM 19.0 °F 8.2 °F 9.0 °F 65% 30.15 in 10.0 mi ENE 9.2 mph - N/A   Mostly Cloudy
1:53 PM 19.9 °F 8.6 °F 10.0 °F 65% 30.14 in 10.0 mi East 10.4 mph - N/A   Scattered Clouds
2:53 PM 19.0 °F 10.0 °F 10.0 °F 68% 30.14 in 10.0 mi NE 6.9 mph - N/A   Overcast
3:53 PM 18.0 °F 5.4 °F 9.0 °F 68% 30.14 in 10.0 mi NE 11.5 mph - N/A   Scattered Clouds
4:53 PM 16.0 °F 2.3 °F 8.1 °F 71% 30.15 in 10.0 mi ENE 12.7 mph - N/A   Overcast
5:53 PM 15.1 °F 0.5 °F 7.0 °F 70% 30.15 in 10.0 mi ENE 13.8 mph - N/A   Overcast
6:53 PM 15.1 °F 2.5 °F 8.1 °F 74% 30.19 in 10.0 mi ENE 10.4 mph - N/A   Overcast
7:53 PM 14.0 °F 1.2 °F 7.0 °F 74% 30.21 in 10.0 mi ENE 10.4 mph - N/A   Overcast
8:53 PM 14.0 °F 2.0 °F 7.0 °F 74% 30.22 in 10.0 mi NE 9.2 mph - N/A   Overcast
9:53 PM 12.9 °F 1.6 °F 6.1 °F 74% 30.25 in 10.0 mi NE 8.1 mph - N/A   Overcast
10:53 PM 12.9 °F 3.8 °F 6.1 °F 74% 30.27 in 10.0 mi NE 5.8 mph - N/A   Overcast
11:53 PM 12.9 °F -0.9 °F 6.1 °F 74% 30.29 in 10.0 mi NE 11.5 mph - N/A   Overcast